sat.trackr.live / text

‹ back to catalog

O3B FM20

NORAD 44112 · 2019-020A

PAYLOAD ACTIVE UNKNOWN

§ Identity

Operator
Country
O3B
Launch date
2019-04-04
Launch site
FRGUI
Launch vehicle
Mass (kg)
RCS (m²)

Purposes: comms

External: N2YO · Heavens-Above · Gunter

§ Orbital elements

Epoch: 2026-05-25T00:35:33.641088Z

Period
287.93 min
Inclination
0.0526°
Eccentricity
0.0002502
Mean motion
5.00115581 rev/d
Perigee alt
8,062.3 km
Apogee alt
8,069.5 km
Semi-major
14,444.0 km
B*
0.0000e+0
RAAN
0.0921°
Arg perigee
54.1526°
Mean anomaly
305.7780°
Rev number
13,041

§ Raw data

O3B FM201 44112U 19020A   26145.02469492 -.00000024  00000+0  00000+0 0  99932 44112   0.0526   0.0921 0002502  54.1526 305.7780  5.00115581130416

JSON: /api/v1/satellites/44112 · /tle

For live sub-satellite position, see the globe view (requires WebGL).

§ Visibility from observer

Set your observer location to see the next 7 days of passes ≥ 10°. The values pass through the URL so the page stays shareable.

No JS? Fill the form by hand. The geolocation button needs JavaScript.